Ypsilanti, MI

7:25 PM EDT on March 25, 2017 (GMT -0400)
Willow Run

Weather History for KYIP - April, 2013

Change the Weather History Date:

Tuesday, April 9, 2013

  Actual Average Record
Temperature  
Mean Temperature 50 °F -  
Max Temperature 59 °F 53 °F 72 °F (1970)
Min Temperature 44 °F 33 °F - (1997)
Degree Days  
Heating Degree Days 14    
Moisture  
Dew Point 41 °F    
Average Humidity 75    
Maximum Humidity 82    
Minimum Humidity 57    
Precipitation  
Precipitation 0.00 in - - ()
Sea Level Pressure  
Sea Level Pressure 30.01 in    
Wind  
Wind Speed 7 mph (ENE)    
Max Wind Speed 13 mph    
Max Gust Speed -    
Visibility 6 miles    
Events Rain    
Averages and records for this station are not official NWS values.
T = Trace of Precipitation, MM = Missing Value Source: NWS Daily Summary

Daily Weather History Graph

Daily Weather History Graph

Search for Another Location

Airport or City:

Trip Planner

Search our weather history database for the weather conditions in past years. The results will help you decide how hot, cold, wet, or windy it might be!

Date:

Astronomy

Apr. 09, 2013 Rise Set
Actual Time 7:02 AM EDT 8:09 PM EDT
Civil Twilight 6:34 AM EDT 8:37 PM EDT
Nautical Twilight 5:59 AM EDT 9:12 PM EDT
Astronomical Twilight 5:23 AM EDT 9:48 PM EDT
Moon 6:25 AM EDT (4/9) 7:43 PM EDT (4/9)
Length of Visible Light 14h 03m
Length of Day
13h 06m
Waning Crescent, 1% of the Moon is Illuminated
Apr 9
Waning Crescent
Apr 10
New
Apr 18
First Quarter
Apr 25
Full
May 2
Last Quarter

Hourly Weather History & Observations

Time (EDT) Temp. Windchill Dew Point Humidity Pressure Visibility Wind Dir Wind Speed Gust Speed Precip Events Conditions
12:53 AM 46.9 °F - 41.0 °F 80% 29.99 in 9.0 mi NW 12.7 mph - N/A   Clear
1:53 AM 46.9 °F - 41.0 °F 80% 30.01 in 7.0 mi NNW 11.5 mph - N/A   Clear
2:53 AM 46.0 °F 44.8 °F 39.9 °F 79% 30.03 in 7.0 mi WNW 3.5 mph - N/A   Mostly Cloudy
3:05 AM 44.6 °F 43.1 °F 39.2 °F 81% 30.03 in 7.0 mi NW 3.5 mph - N/A   Scattered Clouds
3:29 AM 44.6 °F - 39.2 °F 81% 30.04 in 7.0 mi Calm Calm - N/A   Mostly Cloudy
3:53 AM 46.0 °F 44.8 °F 39.9 °F 79% 30.04 in 7.0 mi North 3.5 mph - N/A   Overcast
4:53 AM 46.0 °F 44.8 °F 39.9 °F 79% 30.06 in 8.0 mi NNW 3.5 mph - N/A   Overcast
5:53 AM 46.0 °F - 39.9 °F 79% 30.07 in 8.0 mi Calm Calm - N/A   Overcast
6:50 AM 44.6 °F 43.1 °F 39.2 °F 81% 30.09 in 6.0 mi ENE 3.5 mph - N/A   Haze
6:53 AM 45.0 °F 43.5 °F 39.9 °F 82% 30.08 in 6.0 mi ENE 3.5 mph - N/A   Haze
7:21 AM 44.6 °F 43.1 °F 39.2 °F 81% 30.09 in 5.0 mi East 3.5 mph - N/A   Haze
7:39 AM 44.6 °F 41.4 °F 39.2 °F 81% 30.09 in 5.0 mi ENE 5.8 mph - N/A   Haze
7:53 AM 45.0 °F 43.5 °F 39.9 °F 82% 30.09 in 5.0 mi ENE 3.5 mph - N/A   Haze
8:20 AM 46.4 °F 42.4 °F 39.2 °F 76% 30.09 in 5.0 mi East 8.1 mph - N/A   Haze
8:53 AM 46.0 °F 43.1 °F 39.9 °F 79% 30.09 in 5.0 mi East 5.8 mph - N/A   Haze
9:09 AM 46.4 °F 42.4 °F 39.2 °F 76% 30.09 in 5.0 mi East 8.1 mph - N/A   Haze
9:40 AM 48.2 °F - 41.0 °F 76% 30.08 in 7.0 mi East 9.2 mph - N/A   Partly Cloudy
9:53 AM 50.0 °F - 41.0 °F 71% 30.06 in 8.0 mi East 11.5 mph - N/A   Scattered Clouds
10:53 AM 50.0 °F - 41.0 °F 71% 30.09 in 5.0 mi ESE 6.9 mph - N/A   Haze
11:53 AM 50.0 °F - 41.0 °F 71% 30.06 in 5.0 mi ENE 8.1 mph - N/A   Haze
12:53 PM 51.1 °F - 41.0 °F 68% 30.01 in 6.0 mi ESE 9.2 mph - 0.00 in   Haze
1:08 PM 51.8 °F - 42.8 °F 71% 30.00 in 7.0 mi East 10.4 mph - N/A   Overcast
1:53 PM 54.0 °F - 42.1 °F 64% 29.98 in 7.0 mi East 9.2 mph - N/A   Overcast
2:53 PM 57.0 °F - 42.1 °F 57% 29.94 in 9.0 mi ESE 6.9 mph - N/A   Mostly Cloudy
3:53 PM 57.9 °F - 43.0 °F 58% 29.91 in 8.0 mi East 5.8 mph - 0.00 in   Overcast
4:53 PM 57.0 °F - 44.1 °F 62% 29.89 in 7.0 mi ENE 4.6 mph - 0.00 in Rain Light Rain
5:53 PM 54.0 °F - 44.1 °F 69% 29.89 in 6.0 mi NE 10.4 mph - 0.00 in   Haze
6:53 PM 52.0 °F - 43.0 °F 71% 29.91 in 5.0 mi NE 6.9 mph - N/A   Haze
7:53 PM 51.1 °F - 44.1 °F 77% 29.91 in 6.0 mi NE 8.1 mph - N/A   Haze
8:53 PM 51.1 °F - 44.1 °F 77% 29.91 in 6.0 mi ENE 5.8 mph - N/A   Haze
9:26 PM 50.0 °F - 44.6 °F 82% 29.94 in 5.0 mi North 10.4 mph - N/A   Haze
9:53 PM 50.0 °F - 44.1 °F 80% 29.94 in 4.0 mi ENE 8.1 mph - N/A   Haze
10:53 PM 51.1 °F - 44.1 °F 77% 29.96 in 5.0 mi NE 5.8 mph - N/A   Haze
11:53 PM 51.1 °F - 44.1 °F 77% 29.96 in 5.0 mi NE 4.6 mph - N/A   Haze